Weather History for KSNS - July, 2013

Change the Weather History Date:

Sunday, July 7, 2013

  Actual Average Record
Temperature  
Mean Temperature 63 °F 63 °F  
Max Temperature 70 °F 71 °F 84 °F (1985)
Min Temperature 56 °F 55 °F 43 °F (1935)
Degree Days  
Heating Degree Days 2 3  
Month to date heating degree days 8 21  
Since 1 June heating degree days 106 134  
Since 1 July heating degree days 8 21  
Cooling Degree Days 0 1  
Month to date cooling degree days 10 7  
Year to date cooling degree days 44 35  
Since 1 June cooling degree days 34 19  
Growing Degree Days 12 (Base 50)    
Moisture  
Dew Point 52 °F    
Average Humidity 71    
Maximum Humidity 86    
Minimum Humidity 55    
Precipitation  
Precipitation 0.00 in 0.00 in 0.21 in (1936)
Month to date precipitation 0.00 0.00  
Year to date precipitation 2.33 8.72  
Since 1 July precipitation 0.00 0.00  
Sea Level Pressure  
Sea Level Pressure 29.87 in    
Wind  
Wind Speed 8 mph (WNW)    
Max Wind Speed 17 mph    
Max Gust Speed 24 mph    
Visibility 10 miles    
Events      
T = Trace of Precipitation, MM = Missing Value Source: NWS Daily Summary

Daily Weather History Graph

Daily Weather History Graph

Search for Another Location

Airport or City:

Trip Planner

Search our weather history database for the weather conditions in past years. The results will help you decide how hot, cold, wet, or windy it might be!

Date:

Astronomy

Jul. 07, 2013 Rise Set
Actual Time 5:54 AM PDT 8:27 PM PDT
Civil Twilight 5:24 AM PDT 8:58 PM PDT
Nautical Twilight 4:46 AM PDT 9:35 PM PDT
Astronomical Twilight 4:05 AM PDT 10:17 PM PDT
Moon 5:33 AM PDT (7/7) 7:57 PM PDT (7/7)
Length of Visible Light 15h 33m
Length of Day
14h 33m
Waning Crescent, 0% of the Moon is Illuminated
Jul 7
Waning Crescent
Jul 8
New
Jul 15
First Quarter
Jul 22
Full
Jul 29
Last Quarter

Hourly Weather History & Observations

Time (PDT) Temp. Dew Point Humidity Pressure Visibility Wind Dir Wind Speed Gust Speed Precip Events Conditions
12:53 AM 57.0 °F 51.1 °F 81% 29.87 in 9.0 mi Calm Calm - N/A   Overcast
1:53 AM 57.0 °F 51.1 °F 81% 29.86 in 9.0 mi Variable 3.5 mph - N/A   Overcast
2:53 AM 57.0 °F 51.1 °F 81% 29.86 in 8.0 mi Calm Calm - N/A   Overcast
3:53 AM 55.9 °F 51.1 °F 84% 29.86 in 9.0 mi WNW 5.8 mph - N/A   Overcast
4:15 AM 57.2 °F 51.8 °F 82% 29.83 in 9.0 mi NW 4.6 mph - N/A   Overcast
4:53 AM 57.0 °F 52.0 °F 83% 29.86 in 9.0 mi NNW 3.5 mph - N/A   Overcast
5:53 AM 57.0 °F 52.0 °F 83% 29.87 in 9.0 mi NNW 5.8 mph - N/A   Overcast
6:53 AM 57.0 °F 51.1 °F 81% 29.87 in 8.0 mi NNE 4.6 mph - N/A   Overcast
7:53 AM 57.0 °F 52.0 °F 83% 29.88 in 8.0 mi Calm Calm - N/A   Overcast
8:30 AM 57.2 °F 51.8 °F 82% 29.86 in 9.0 mi Calm Calm - N/A   Overcast
8:53 AM 57.9 °F 52.0 °F 81% 29.89 in 10.0 mi Calm Calm - N/A   Overcast
9:53 AM 59.0 °F 52.0 °F 78% 29.90 in 9.0 mi Calm Calm - N/A   Overcast
10:00 AM 60.8 °F 51.8 °F 72% 29.87 in 10.0 mi Calm Calm - N/A   Overcast
10:29 AM 64.4 °F 53.6 °F 68% 29.87 in 10.0 mi Calm Calm - N/A   Partly Cloudy
10:53 AM 64.0 °F 52.0 °F 65% 29.90 in 9.0 mi NW 6.9 mph - N/A   Clear
11:53 AM 64.9 °F 53.1 °F 65% 29.89 in 10.0 mi West 9.2 mph - N/A   Clear
12:53 PM 66.9 °F 53.1 °F 61% 29.88 in 10.0 mi WNW 11.5 mph - N/A   Clear
1:53 PM 68.0 °F 52.0 °F 56% 29.87 in 10.0 mi WNW 12.7 mph - N/A   Clear
2:53 PM 66.9 °F 53.1 °F 61% 29.87 in 10.0 mi West 13.8 mph - N/A   Clear
3:53 PM 66.9 °F 53.1 °F 61% 29.87 in 10.0 mi WNW 13.8 mph - N/A   Clear
4:53 PM 66.0 °F 52.0 °F 60% 29.86 in 10.0 mi WNW 15.0 mph - N/A   Clear
5:53 PM 64.0 °F 52.0 °F 65% 29.86 in 10.0 mi WNW 15.0 mph - N/A   Clear
6:53 PM 62.1 °F 52.0 °F 70% 29.86 in 10.0 mi WNW 15.0 mph - N/A   Partly Cloudy
7:24 PM 60.8 °F 51.8 °F 72% 29.84 in 10.0 mi WNW 12.7 mph - N/A   Mostly Cloudy
7:41 PM 60.8 °F 51.8 °F 72% 29.85 in 10.0 mi WNW 11.5 mph - N/A   Overcast
7:53 PM 60.1 °F 52.0 °F 75% 29.88 in 10.0 mi WNW 12.7 mph 19.6 mph N/A   Overcast
8:53 PM 59.0 °F 52.0 °F 78% 29.89 in 10.0 mi WNW 10.4 mph - N/A   Overcast
9:53 PM 59.0 °F 52.0 °F 78% 29.91 in 10.0 mi WNW 8.1 mph - N/A   Overcast
10:53 PM 59.0 °F 52.0 °F 78% 29.93 in 10.0 mi NW 8.1 mph - N/A   Overcast
11:53 PM 59.0 °F 52.0 °F 78% 29.93 in 10.0 mi NW 5.8 mph - N/A   Overcast